Probability
3 1 0 0 0 0 0 0 0 0 0 0 0 0 0 0 0 0 0 0 0 0 0 0 0 0 0 0 0 0 0 0 0 0 0 0 0 0 0 0 0 0 0 0
1 0 0 0 0 0 0 0 0 0 0 0 0 0 0 0 0 0 0 0 0 0 0 0 0 0 0 0 0 0 0 0 0 0 0 0 0 0 0 0 0 0 0 0
0 0 0 0 0 0 0 0 0 0 0 0 0 0 0 0 0 0 0 0 0 0 0 0 0 0 0 0 0 0 0 0 0 0 0 0 0 0 0 0 0 0 0 0
0 0 0 0 0 0 0 0 0 0 0 0 0 0 0 0 0 0 0 0 0 0 0 0 0 0 0 0 0 0 0 0 0 0 0 0 0 0 0 0 0 0 0 0
0 0 0 0 0 0 0 0 0 0 0 0 0 0 0 0 0 0 0 0 0 0 0 0 0 0 0 0 0 0 0 0 0 0 0 0 0 0 0 0 0 0 0 0
0 0 0 0 0 0 0 0 0 0 0 0 0 0 0 0 0 0 0 0 0 0 0 0 0 0 0 0 0 0 0 0 0 0 0 0 0 0 0 0 0 0 0 0
0 0 0 0 0 0 0 0 0 0 0 0 0 0 0 0 0 0 0 0 0 0 0 0 0 0 0 0 0 0 0 0 0 0 0 0 0 0 0 0 0 0 0 0
0 0 0 0 0 0 0 0 0 0 0 0 0 0 0 0 0 0 0 0 0 0 0 0 0 0 0 0 0 0 0 0 0 0 0 0 0 0 0 0 0 0 0 0
0 0 0 0 0 0 0 0 0 0 0 0 0 0 0 0 0 0 0 0 0 0 0 0 0 0 0 0 0 0 0 0 0 0 0 0 0 0 0 0 0 0 0 0
0 0 0 0 0 0 0 0 0 0 0 0 0 0 0 0 0 0 0 0 0 0 0 0 0 0 0 0 0 0 0 0 0 0 0 0 0 0 0 0 0 0 0 0
0 0 0 0 0 0 0 0 0 0 0 0 0 0 0 0 0 0 0 0 0 0 0 0 0 0 0 0 0 0 0 0 0 0 0 0 0 0 0 0 0 0 0 0
0 0 0 0 0 0 0 0 0 0 0 0 0 0 0 0 0 0 0 0 0 0 0 0 0 0 0 0 0 0 0 0 0 0 0 0 0 0 0 0 0 0 0 0
0 0 0 0 0 0 0 0 0 0 0 0 0 0 0 0 0 0 0 0 0 0 0 0 0 0 0 0 0 0 0 0 0 0 0 0 0 0 0 0 0 0 0 0
0 0 0 0 0 0 0 0 0 0 0 0 0 0 0 0 0 0 0 0 0 0 0 0 0 0 0 0 0 0 0 0 0 0 0 0 0 0 0 0 0 0 0 0
0 0 0 0 0 0 0 0 0 0 0 0 0 0 0 0 0 0 0 0 0 0 0 0 0 0 0 0 0 0 0 0 0 0 0 0 0 0 0 0 0 0 0 0
0 0 0 0 0 0 0 0 0 0 0 0 0 0 0 0 0 0 0 0 0 0 0 0 0 0 0 0 0 0 0 0 0 0 0 0 0 0 0 0 0 0 0 0
0 0 0 0 0 0 0 0 0 0 0 0 0 0 0 0 0 0 0 0 0 0 0 0 0 0 0 0 0 0 0 0 0 0 0 0 0 0 0 0 0 0 0 0
0 0 0 0 0 0 0 0 0 0 0 0 0 0 0 0 0 0 0 0 0 0 0 0 0 0 0 0 0 0 0 0 0 0 0 0 0 0 0 0 0 0 0 0
0 0 0 0 0 0 0 0 0 0 0 0 0 0 0 0 0 0 0 0 0 0 0 0 0 0 0 0 0 0 0 0 0 0 0 0 0 0 0 0 0 0 0 0
0 0 0 0 0 0 0 0 0 0 0 0 0 0 0 0 0 0 0 0 0 0 0 0 0 0 0 0 0 0 0 0 0 0 0 0 0 0 0 0 0 0 0 0
0 0 0 0 0 0 0 0 0 0 0 0 0 0 0 0 0 0 0 0 0 0 0 0 0 0 0 0 0 0 0 0 0 0 0 0 0 0 0 0 0 0 0 0
0 0 0 0 0 0 0 0 0 0 0 0 0 0 0 0 0 0 0 0 0 0 0 0 0 0 0 0 0 0 0 0 0 0 0 0 0 0 0 0 0 0 0 0
0 0 0 0 0 0 0 0 0 0 0 0 0 0 0 0 0 0 0 0 0 0 0 0 0 0 0 0 0 0 0 0 0 0 0 0 0 0 0 0 0 0 0 0
0 0 0 0 0 0 0 0 0 0 0 0 0 0 0 0 0 0 0 0 0 0 0 0 0 0 0 0 0 0 0 0 0 0 0 0 0 0 0 0 0 0 0 0
0 0 0 0 0 0 0 0 0 0 0 0 0 0 0 0 0 0 0 0 0 0 0 0 0 0 0 0 0 0 0 0 0 0 0 0 0 0 0 0 0 0 0 0
0 0 0 0 0 0 0 0 0 0 0 0 0 0 0 0 0 0 0 0 0 0 0 0 0 0 0 0 0 0 0 0 0 0 0 0 0 0 0 0 0 0 0 0
Wind_Speed
13 12 11 8 4 3 4 7 9 2 6 2 7 8 6 10 8 6 6 5 4 1 4 6 3 2 2 4 4 4 4 4 4 3 3 4 4 4 3 3 4 5 5 5
12 15 9 5 4 4 9 9 8 2 5 1 8 10 5 9 8 5 4 3 2 2 2 4 4 3 3 4 4 4 4 4 4 3 3 3 3 3 3 3 3 4 4 4
14 7 7 7 7 8 10 6 5 6 3 5 8 9 7 8 6 5 3 2 3 1 2 3 4 3 3 3 4 5 5 5 5 4 3 4 4 3 3 4 3 4 4 4
4 1 4 6 7 5 5 6 4 5 6 7 5 4 5 9 7 7 6 4 2 1 2 2 2 3 3 4 4 5 5 5 5 5 4 4 4 3 4 3 3 4 4 4
6 7 8 7 1 1 4 4 4 6 8 9 7 6 4 8 6 6 5 4 2 3 3 2 2 2 2 3 3 3 3 3 3 4 4 3 3 3 3 4 4 4 4 4
5 4 2 4 7 4 1 4 7 7 7 9 7 5 3 5 4 4 5 4 4 4 3 2 2 2 1 2 1 1 1 1 2 3 4 3 3 4 5 5 4 4 3 3
7 6 4 4 4 4 5 7 5 7 7 4 6 2 3 9 7 4 3 3 4 4 3 3 2 2 1 1 0 1 1 1 2 3 4 4 3 4 4 4 4 4 3 3
10 11 8 5 4 3 6 8 6 6 3 3 6 3 7 9 6 4 3 3 3 3 3 2 2 2 2 2 1 0 1 1 1 2 3 4 4 3 3 4 4 4 3 3
5 6 8 4 1 4 5 5 3 6 9 5 5 8 8 6 6 5 4 4 4 3 4 3 3 2 2 1 1 0 1 1 1 2 3 2 3 3 4 4 4 3 4 4
4 6 7 5 4 4 6 8 3 4 5 5 3 6 6 7 4 4 4 5 4 4 4 4 4 3 2 1 1 2 2 2 0 2 2 2 2 2 3 3 3 4 5 5
7 5 10 8 8 8 7 6 4 5 5 4 3 4 6 6 4 1 1 3 4 4 4 4 4 3 2 1 2 2 2 1 1 1 2 3 2 2 3 3 3 4 4 5
4 6 6 10 6 1 3 6 5 4 4 2 2 3 5 5 3 1 1 1 3 3 4 4 4 3 2 2 1 1 0 1 1 1 2 3 3 2 3 4 4 5 5 5
3 5 5 7 5 5 6 7 6 4 4 5 4 4 4 5 4 2 1 1 2 4 4 4 4 3 2 2 2 2 1 1 1 1 1 3 4 2 3 3 4 5 5 5
5 8 10 6 4 6 6 8 7 6 5 6 3 3 4 3 2 2 2 1 2 3 4 4 4 4 4 3 2 2 1 2 1 2 2 2 3 2 2 3 4 4 5 5
5 10 13 8 1 2 5 7 9 10 10 8 5 5 4 4 3 2 1 2 2 2 3 4 5 4 4 4 4 3 3 2 1 1 1 1 2 3 3 3 4 4 4 6
7 9 11 8 5 6 8 9 10 11 9 9 7 5 1 4 2 1 1 2 3 3 3 3 4 4 4 4 3 3 3 3 2 2 1 1 1 1 2 3 3 3 4 5
8 9 10 9 8 7 10 14 14 11 10 7 7 2 3 1 1 1 1 0 1 2 2 3 3 3 3 3 2 3 2 2 2 2 1 1 1 1 2 3 3 4 4 4
9 10 7 9 7 9 3 3 8 10 9 7 5 1 1 1 2 2 1 0 1 1 1 2 2 3 4 4 3 3 3 3 3 2 2 2 2 2 2 3 4 4 4 4
8 7 6 7 9 8 5 5 5 7 8 8 6 4 2 1 3 4 4 2 1 2 2 1 1 2 3 2 2 2 3 4 3 3 2 3 3 3 3 3 4 4 3 4
6 7 6 6 6 7 1 11 7 4 5 7 6 5 4 3 2 4 5 3 3 3 2 1 1 1 1 1 2 1 2 2 2 3 3 2 2 2 3 4 4 4 4 4
8 7 8 8 8 5 8 11 9 5 3 9 8 5 4 1 6 5 5 4 3 3 2 1 0 1 1 1 0 2 3 2 1 1 1 1 2 3 4 4 4 4 4 5
11 7 8 8 9 6 11 9 6 3 6 7 7 5 4 5 6 5 5 4 3 3 3 1 1 1 1 1 2 3 3 2 1 1 2 4 4 5 4 5 5 5 5 5
9 8 4 5 2 5 6 4 4 3 3 5 6 5 5 4 4 4 4 4 3 3 3 1 0 1 1 1 1 2 3 2 2 3 4 5 6 6 6 6 6 5 5 4
7 10 7 4 6 9 6 5 5 2 1 5 5 5 4 4 5 5 4 4 3 3 3 2 2 1 2 2 2 2 3 4 4 5 5 5 6 6 6 5 5 4 4 4
6 4 6 8 5 5 6 7 7 6 4 5 4 4 4 4 5 5 5 5 4 4 4 4 3 3 3 4 4 4 4 5 5 6 5 5 5 5 5 4 5 5 5 5
10 7 7 6 6 7 9 12 10 9 8 7 7 6 4 5 5 6 6 5 4 4 4 5 4 4 5 6 7 7 7 7 7 6 6 4 4 4 4 4 5 8 9 11
Wind_Direction
199 215 222 222 228 294 275 261 273 113 128 238 280 277 201 172 182 216 232 231 232 150 101 103 87 64 24 31 21 11 15 15 19 16 342 342 337 328 331 343 355 348 335 332
196 219 209 146 108 264 260 269 286 80 113 302 288 282 243 167 181 205 251 284 298 83 65 99 92 66 42 39 23 5 23 18 20 6 343 329 329 319 328 339 346 347 338 336
211 210 179 172 191 236 264 278 337 347 327 260 263 266 220 160 166 180 202 258 301 42 45 46 50 37 38 50 31 11 23 19 19 360 360 343 332 330 351 347 343 335 326 327
190 159 192 211 223 239 282 56 7 315 292 275 224 287 171 154 167 185 189 200 209 126 106 84 68 42 27 50 41 19 19 16 16 2 5 345 337 344 336 333 328 334 331 335
169 191 218 225 137 5 42 29 302 281 274 279 246 247 154 147 172 170 158 164 146 125 119 108 96 72 40 51 46 21 16 17 13 344 327 315 342 332 323 325 331 337 327 328
149 187 238 77 79 45 47 262 253 247 257 257 232 240 135 137 116 111 128 143 141 137 138 142 126 122 99 79 66 13 13 6 345 319 315 324 339 330 324 332 337 331 320 328
171 165 115 120 152 171 235 254 252 222 216 217 120 176 86 94 82 77 91 113 126 135 155 154 145 132 102 75 88 318 337 346 354 329 324 340 349 339 335 348 337 326 328 339
193 177 167 191 241 261 229 261 283 300 288 123 151 175 101 101 99 101 116 121 135 160 162 150 146 155 182 214 195 221 319 311 327 317 338 345 353 356 344 342 327 328 335 328
261 134 132 142 236 291 269 239 301 319 296 285 173 129 122 132 145 152 164 166 183 184 164 175 170 186 204 204 153 167 282 300 322 327 330 334 2 345 337 335 332 340 330 323
293 133 158 151 204 225 291 328 310 256 296 287 167 151 142 149 149 158 181 182 187 180 181 175 160 183 211 183 166 212 223 242 341 338 322 351 345 337 325 316 329 326 316 318
279 207 164 173 208 210 193 220 251 280 280 298 345 71 81 103 89 89 188 159 168 174 174 167 162 180 181 220 232 217 210 185 138 348 336 338 333 317 309 318 325 315 316 324
262 298 203 181 167 137 251 251 244 257 293 266 275 106 107 111 116 156 317 140 151 153 161 168 170 177 191 218 273 304 337 67 106 73 339 321 303 304 342 345 339 338 329 324
321 270 253 154 164 177 220 233 255 281 295 275 268 121 158 144 151 154 158 214 159 155 173 183 169 178 197 203 225 242 205 151 120 142 286 301 311 348 351 335 341 333 327 330
333 272 273 292 26 143 199 207 215 234 246 262 256 126 164 132 120 112 123 173 184 174 177 183 171 189 194 202 227 231 148 136 182 207 232 280 307 340 353 348 336 325 333 333
245 262 271 270 233 240 230 208 202 225 247 273 328 9 5 54 68 70 134 177 189 198 192 188 181 197 196 200 206 200 167 175 220 233 227 274 343 359 357 335 323 331 336 327
239 266 273 265 236 240 250 239 219 219 238 261 288 298 60 83 92 165 206 172 187 203 208 200 192 189 198 216 199 177 166 173 196 228 218 161 253 301 314 305 310 319 311 304
222 245 267 266 225 223 246 229 220 217 217 230 249 256 91 79 46 39 22 51 206 202 190 193 205 187 190 219 176 146 142 148 208 223 195 169 221 267 286 304 312 307 304 308
229 235 251 264 229 230 253 61 187 204 216 217 226 228 115 102 109 139 156 307 294 140 152 177 202 190 193 200 174 156 164 196 212 199 206 207 208 232 252 269 277 281 290 304
259 256 255 261 263 254 192 163 172 192 215 206 206 197 172 160 184 173 137 112 54 66 104 149 192 212 203 186 159 177 206 204 195 189 215 227 214 217 238 262 271 270 275 282
248 273 257 259 262 272 201 140 146 186 230 182 178 168 157 212 219 112 100 94 79 74 74 77 128 270 266 162 143 212 266 259 228 201 211 224 222 225 239 252 265 272 271 269
199 228 239 257 266 266 109 124 143 200 219 150 152 150 166 134 84 104 99 92 89 96 92 74 273 275 333 349 300 251 264 274 286 127 191 240 247 244 242 242 249 263 271 274
186 207 213 219 237 235 138 153 178 116 106 127 134 134 118 93 99 106 104 102 100 111 116 123 275 262 245 274 278 278 278 288 305 263 239 242 245 250 254 240 241 248 260 272
204 218 216 210 185 102 147 148 97 81 138 128 125 116 119 125 123 114 108 105 98 92 102 116 231 321 323 304 291 304 313 312 286 263 250 243 243 243 238 237 240 242 245 251
228 220 242 247 160 171 186 142 142 170 126 104 113 126 144 148 128 118 111 102 93 79 75 71 62 44 10 4 39 18 336 325 305 282 265 252 248 247 243 234 228 229 237 247
269 226 222 244 238 166 183 186 178 173 168 152 148 147 147 134 123 120 111 95 84 75 70 69 55 38 23 20 28 19 356 335 316 302 293 283 272 265 260 250 232 229 228 223
268 252 223 227 229 213 197 189 181 175 183 175 159 145 134 128 124 114 99 87 78 71 68 68 58 43 32 29 30 20 4 351 337 324 320 317 312 301 288 278 273 249 241 243